TimePST,TemperatureF,Dew PointF,Humidity,Sea Level PressureIn,VisibilityMPH,Wind Direction,Wind SpeedMPH,Gust SpeedMPH,PrecipitationIn,Events,Conditions,WindDirDegrees,DateUTC
12:53 AM,28.9,23.0,78,30.38,10.0,SSW,3.5,-,N/A,,Partly Cloudy,210,2013-02-14 08:53:00
1:53 AM,24.8,21.2,86,30.34,10.0,SSW,3.5,-,N/A,,Clear,210,2013-02-14 09:53:00
2:53 AM,25.0,21.0,85,30.42,10.0,Calm,Calm,-,N/A,,Scattered Clouds,0,2013-02-14 10:53:00
3:53 AM,27.0,24.1,89,30.42,10.0,South,5.8,-,N/A,,Scattered Clouds,170,2013-02-14 11:53:00
4:53 AM,28.0,25.0,88,30.43,10.0,SSE,10.4,-,N/A,,Overcast,150,2013-02-14 12:53:00
5:53 AM,27.0,25.0,92,30.44,10.0,SSE,6.9,-,N/A,,Mostly Cloudy,160,2013-02-14 13:53:00
6:53 AM,28.0,25.0,88,30.46,10.0,SSE,6.9,-,N/A,,Overcast,150,2013-02-14 14:53:00
7:53 AM,28.0,26.1,92,30.48,10.0,SSE,6.9,-,N/A,,Mostly Cloudy,150,2013-02-14 15:53:00
8:53 AM,30.0,28.0,92,30.49,10.0,South,6.9,-,N/A,,Mostly Cloudy,170,2013-02-14 16:53:00
9:53 AM,33.1,28.9,85,30.51,10.0,South,5.8,-,N/A,,Overcast,170,2013-02-14 17:53:00
10:53 AM,37.0,28.9,73,30.49,10.0,SSW,5.8,-,N/A,,Mostly Cloudy,210,2013-02-14 18:53:00
11:53 AM,39.0,28.0,65,30.50,10.0,SW,9.2,-,N/A,,Mostly Cloudy,230,2013-02-14 19:53:00
12:53 PM,39.0,28.9,67,30.49,10.0,South,4.6,-,N/A,,Mostly Cloudy,190,2013-02-14 20:53:00
1:53 PM,39.9,28.0,63,30.49,10.0,SW,8.1,-,N/A,,Mostly Cloudy,230,2013-02-14 21:53:00
2:53 PM,41.0,28.9,62,30.50,10.0,SSW,6.9,-,N/A,,Mostly Cloudy,210,2013-02-14 22:53:00
3:53 PM,39.9,30.9,70,30.50,10.0,SW,3.5,-,N/A,,Mostly Cloudy,220,2013-02-14 23:53:00
4:53 PM,39.0,27.0,62,30.51,10.0,West,5.8,-,N/A,,Scattered Clouds,280,2013-02-15 00:53:00
5:53 PM,36.0,27.0,70,30.51,10.0,Calm,Calm,-,N/A,,Scattered Clouds,0,2013-02-15 01:53:00
6:53 PM,35.1,27.0,72,30.51,10.0,Calm,Calm,-,N/A,,Scattered Clouds,0,2013-02-15 02:53:00
7:53 PM,30.0,25.0,82,30.53,10.0,Calm,Calm,-,N/A,,Partly Cloudy,0,2013-02-15 03:53:00
8:53 PM,32.0,26.1,79,30.53,10.0,Calm,Calm,-,N/A,,Clear,0,2013-02-15 04:53:00
9:53 PM,32.0,27.0,82,30.54,10.0,SSE,3.5,-,N/A,,Partly Cloudy,150,2013-02-15 05:53:00
10:53 PM,30.9,27.0,85,30.56,10.0,Calm,Calm,-,N/A,,Clear,0,2013-02-15 06:53:00
11:53 PM,30.0,27.0,88,30.56,10.0,Calm,Calm,-,N/A,,Partly Cloudy,0,2013-02-15 07:53:00